Terminal Aerodrome Forecast
Issued by NWS

Home | Current Version | Previous Version | Text Only | Print | Product List | Glossary On
Versions: 1 2 3 4 5 6 7 8 9 10 11 12 13
759
FTUS46 KPDT 300127 AAA
TAFRDM
TAF AMD
KRDM 300127Z 3001/3024 33010KT P6SM -SHRA BKN040
     FM300800 31010KT P6SM BKN050
     FM301700 31010G20KT P6SM SCT050=

USA.gov is the U.S. government's official web portal to all federal, state and local government web resources and services.